CW9809 Weather Reports


time (UTC)temp
C
wind
direction
speed
KPH
gust
KPH
rain 1hr
cm
rain 24hr
cm
rain mn
cm
humidity
%
barometer
mb
20260504081523 6 233 0.0 0.0 0.00 0.00 0.00 64 1012.2
20260504050020 6 277 0.0 0.0 0.00 0.00 0.00 60 1012.0
20260504044533 7 277 0.0 0.0 0.00 0.00 0.00 60 1012.0
20260504043025 7 276 0.0 0.0 0.00 0.00 0.00 53 1012.0
20260504041527 7 277 0.0 0.0 0.00 0.00 0.00 53 1012.0
20260504040014 7 277 0.0 0.0 0.00 0.00 0.00 54 1012.0
20260504034518 7 277 0.0 0.0 0.00 0.00 0.00 53 1011.9
20260504033023 8 276 0.0 0.0 0.00 0.00 0.00 51 1011.9
20260504031528 8 276 0.0 0.0 0.00 0.00 0.00 50 1011.8
20260504030029 8 277 0.0 0.0 0.00 0.00 0.00 49 1011.9
20260504024515 8 277 0.0 0.0 0.00 0.00 0.00 48 1011.8
20260504023018 8 277 0.0 0.0 0.00 0.00 0.00 47 1011.8
20260504021521 8 276 0.0 0.0 0.00 0.00 0.00 46 1011.7
20260504020026 8 276 0.0 0.0 0.00 0.00 0.00 44 1011.7
20260504014528 9 321 0.0 0.0 0.00 0.00 0.00 43 1011.6
20260504013016 10 338 0.0 0.0 0.00 0.00 0.00 40 1011.4
20260504011518 10 338 0.0 0.0 0.00 0.00 0.00 41 1011.2
20260504010026 10 338 0.0 0.0 0.00 0.00 0.00 40 1011.0
20260504004528 10 337 0.0 0.0 0.00 0.00 0.00 41 1010.9
20260504003028 10 338 0.0 0.0 0.00 0.00 0.00 42 1010.6
20260504001519 10 338 0.0 0.0 0.00 0.00 0.00 41 1010.4
20260504000024 10 338 0.0 0.0 0.00 0.00 0.00 39 1010.3
20260503234527 11 317 0.0 4.8 0.00 0.00 0.00 37 1010.1
20260503233025 11 15 0.0 8.0 0.00 0.00 0.00 36 1010.0
20260503231516 11 25 3.2 14.5 0.00 0.00 0.00 35 1010.0
20260503230018 12 322 4.8 16.1 0.00 0.00 0.00 34 1009.9
20260503224522 12 128 3.2 12.9 0.00 0.00 0.00 35 1009.8
20260503223005 12 348 4.8 17.7 0.00 0.00 0.00 36 1009.9
20260503221507 12 360 6.4 24.1 0.00 0.00 0.00 35 1009.8
20260503220014 12 26 8.0 24.1 0.00 0.00 0.00 36 1009.9
20260503214516 12 352 3.2 22.5 0.00 0.00 0.00 37 1009.7
20260503213022 12 311 3.2 27.4 0.00 0.00 0.00 37 1009.7
20260503211505 12 331 6.4 24.1 0.00 0.00 0.00 37 1009.9
20260503210015 12 319 6.4 24.1 0.00 0.00 0.00 38 1009.8
20260503204514 12 51 9.7 25.7 0.00 0.00 0.00 38 1009.7
20260503203021 12 27 9.7 24.1 0.00 0.00 0.00 38 1009.8
20260503201524 11 109 6.4 33.8 0.00 0.00 0.00 38 1009.9
20260503200007 11 332 11.3 35.4 0.00 0.00 0.00 38 1009.7
20260503194510 12 304 9.7 30.6 0.00 0.00 0.00 40 1009.9
20260503193016 11 288 6.4 29.0 0.00 0.00 0.00 40 1009.8
20260503191521 11 305 8.0 27.4 0.00 0.00 0.00 39 1009.9
20260503190040 12 360 8.0 30.6 0.00 0.00 0.00 38 1009.9
20260503184508 12 242 11.3 29.0 0.00 0.00 0.00 38 1009.8
20260503183016 11 34 9.7 29.0 0.00 0.00 0.00 40 1009.9
20260503181515 10 48 12.9 32.2 0.00 0.00 0.00 40 1009.8
20260503180036 10 57 12.9 32.2 0.00 0.00 0.00 42 1009.7
20260503174526 10 37 11.3 33.8 0.00 0.00 0.00 39 1009.7
20260503173011 11 13 8.0 24.1 0.00 0.00 0.00 43 1009.8
20260503171521 10 333 8.0 22.5 0.00 0.00 0.00 44 1010.0